Wind_Speed
27 28 28 28 29 25 21 22 21 24 19 15 15 19 13 9 8 5 10 12 11 11 9 9 10 10 8 5 3 4 7 10 11 14 15 16 15 12 12 17 12 16 16 13 12 17 19 16 20
31 30 29 31 30 26 21 24 25 27 22 18 16 19 12 6 10 12 14 10 10 10 11 10 10 10 10 6 3 7 9 12 14 18 19 17 16 13 12 12 14 14 12 16 13 15 18 22 22
34 34 32 30 26 23 26 30 25 28 24 21 18 20 15 10 10 14 15 10 10 10 12 10 10 10 10 6 5 10 12 13 15 21 20 18 16 18 11 10 8 15 21 16 13 11 26 26 23
35 34 34 33 24 25 25 31 32 31 28 24 21 21 19 15 11 12 20 13 12 10 12 11 10 9 7 6 8 11 15 14 20 19 19 17 18 16 16 17 23 22 15 12 16 21 26 24 14
32 35 36 31 26 27 27 33 35 33 30 27 23 20 19 16 10 7 15 12 11 8 9 12 11 9 5 7 11 14 12 14 19 22 16 16 19 19 17 18 20 20 17 19 24 31 26 20 14
32 32 33 30 29 30 28 33 35 33 32 30 27 23 23 20 17 13 13 16 19 15 14 12 10 9 6 9 13 16 13 15 15 15 16 17 19 19 17 18 20 22 21 22 24 24 22 21 19
35 35 33 29 26 29 28 36 38 36 33 31 29 25 25 26 23 22 18 16 23 22 17 12 10 12 7 10 14 15 15 16 16 17 19 21 18 18 18 17 21 24 25 26 26 25 24 21 18
35 38 36 30 26 24 28 36 41 41 36 37 30 25 29 28 26 23 16 15 23 20 15 12 13 13 9 11 16 16 19 16 16 17 17 20 22 20 22 21 22 24 24 25 24 23 21 19 17
33 38 36 30 30 28 30 34 41 42 40 36 31 31 30 31 28 24 19 18 24 20 16 13 14 15 12 12 17 17 20 19 17 17 19 21 23 21 23 24 23 21 22 22 22 23 21 19 18
34 36 32 31 32 33 36 38 39 39 42 39 33 33 31 32 30 27 22 22 27 23 18 15 17 16 15 14 20 20 19 19 21 22 18 21 25 25 26 26 25 23 22 22 22 22 20 19 18
35 35 35 33 31 36 39 39 41 42 39 35 36 38 36 33 33 31 26 22 24 27 21 17 18 18 18 16 20 20 21 20 20 18 20 20 25 30 30 28 26 26 24 23 22 21 21 19 17
38 39 37 35 35 37 36 40 41 43 35 34 40 41 39 34 33 34 29 29 25 24 26 20 21 21 20 20 21 23 21 22 20 28 25 25 28 35 35 30 27 25 24 22 21 22 20 18 17
40 39 39 37 40 40 39 35 41 43 41 39 40 41 40 36 34 34 33 35 33 27 29 25 23 24 22 22 22 23 23 24 22 22 25 36 32 33 38 32 29 26 23 24 24 22 20 19 16
48 45 43 42 42 41 42 37 37 36 47 41 44 41 41 39 38 36 38 40 32 30 33 31 26 27 26 24 25 26 25 26 25 21 24 31 32 34 34 36 31 27 25 26 23 23 21 18 16
51 52 50 49 48 48 48 42 38 35 46 43 45 44 39 41 40 39 39 38 36 29 27 32 29 30 29 27 28 27 27 28 28 25 25 27 31 32 34 33 30 28 28 26 24 22 20 19 18
57 57 56 54 55 56 54 45 36 48 45 43 45 47 43 40 44 41 39 39 38 34 30 34 35 31 32 30 29 30 29 28 30 29 27 29 32 36 32 30 30 29 28 27 24 22 19 18 18
53 56 57 58 59 58 59 51 47 50 49 47 47 48 49 44 46 43 42 41 42 36 35 34 37 34 34 33 32 33 33 32 35 32 30 31 31 33 32 29 28 30 29 26 24 21 20 20 19
53 54 54 55 57 63 63 58 56 54 51 51 46 50 51 49 47 47 46 45 45 40 38 36 40 36 36 37 35 35 35 34 34 35 33 29 33 35 34 32 31 29 27 25 23 22 23 22 21
52 54 55 55 59 65 65 65 62 58 56 53 50 49 53 52 50 49 50 48 45 43 39 35 40 39 36 36 36 34 33 34 33 32 35 36 35 35 35 35 33 30 28 26 25 25 25 23 22
43 48 52 56 58 62 64 66 64 62 57 58 55 52 52 54 53 51 51 51 47 44 41 30 39 39 36 36 36 36 35 37 36 33 38 36 38 37 37 35 32 31 29 28 27 27 26 24 24
37 39 44 51 55 60 63 68 64 62 62 60 59 55 54 55 54 54 53 52 51 48 44 39 35 40 38 37 38 39 40 41 41 38 38 40 38 39 37 35 33 33 32 29 28 28 28 28 27
34 36 39 41 46 50 54 69 66 66 65 63 61 58 55 55 55 55 56 54 53 52 46 42 42 41 42 40 36 39 38 37 34 37 37 39 41 41 39 36 34 35 33 29 29 28 26 26 27
34 36 38 40 43 46 46 56 68 63 68 64 62 60 56 56 55 55 59 56 54 56 51 47 44 40 46 41 40 38 39 39 38 41 41 42 46 44 42 38 35 34 32 30 29 28 27 26 27
30 31 32 35 33 40 34 41 53 58 64 65 65 66 62 58 58 57 61 60 60 60 57 53 47 44 42 45 41 42 39 41 40 41 44 46 48 47 44 39 36 35 34 32 31 31 29 28 28
30 29 22 16 25 27 21 24 28 45 53 59 58 65 68 65 60 60 66 65 62 63 61 55 52 46 44 48 43 38 40 41 40 40 44 47 47 46 43 40 38 37 36 37 36 35 34 33 33
25 24 24 28 18 23 24 26 22 28 40 54 60 63 68 66 66 67 65 67 62 65 63 59 53 49 44 51 49 43 42 40 41 43 45 47 45 43 43 42 41 41 40 40 38 37 36 35 35
22 22 22 25 21 19 22 20 26 27 27 38 55 58 65 68 67 67 68 69 64 67 65 60 53 52 47 45 50 50 49 40 42 44 46 45 46 46 44 44 42 42 42 40 39 38 36 36 37
27 22 16 21 15 14 10 24 25 29 25 34 46 56 55 64 64 67 69 69 66 66 68 63 59 58 53 49 42 49 52 47 42 45 47 47 47 48 47 46 46 45 44 43 40 38 37 36 36
23 21 18 15 14 20 19 17 26 34 28 30 37 52 52 59 64 65 69 69 68 69 69 69 64 62 59 53 48 49 54 50 49 48 48 47 47 46 45 46 46 45 44 42 40 38 38 37 37
22 20 16 12 7 15 16 22 26 17 32 27 25 47 54 56 61 63 67 68 70 69 73 72 64 64 61 56 53 50 56 55 59 51 51 51 50 49 48 49 48 47 46 45 44 42 40 40 40
Wind_Direction
265 261 260 260 260 260 260 260 261 264 261 264 265 272 281 298 282 232 243 226 236 242 232 235 237 231 220 215 221 194 173 184 169 164 154 155 161 169 151 161 150 179 158 161 181 188 184 190 204
266 266 261 256 255 257 259 255 260 264 265 262 263 269 272 257 255 250 237 228 241 236 219 222 232 229 220 207 185 189 177 175 172 157 148 149 150 145 127 154 147 174 172 147 149 163 174 165 161
258 261 261 260 253 254 250 254 257 265 264 261 257 263 268 258 252 244 227 238 241 232 217 218 224 223 219 199 186 196 181 168 166 152 148 146 145 145 154 182 181 164 152 157 173 163 158 160 164
256 256 255 255 256 247 245 253 258 260 262 259 257 256 263 263 259 262 224 219 244 233 221 217 216 219 229 198 196 194 188 171 168 156 155 146 152 148 168 155 142 147 154 190 180 167 159 166 170
256 257 257 254 250 245 239 250 256 258 257 255 252 253 254 258 240 233 231 225 240 239 242 229 219 206 211 211 198 194 186 166 151 149 161 154 157 146 139 137 142 138 133 140 160 164 169 173 172
258 256 257 256 251 247 242 249 252 255 255 252 252 246 250 252 231 227 250 236 220 247 248 232 219 213 189 216 201 201 192 172 164 168 160 160 161 160 146 144 139 147 148 146 142 158 172 165 155
262 259 257 253 251 251 245 245 250 247 248 249 247 242 246 245 241 240 242 247 236 243 235 233 218 218 200 213 202 202 186 176 161 163 162 164 159 169 161 148 144 148 151 147 148 155 155 154 152
261 261 258 256 253 248 247 243 246 248 242 243 247 240 236 242 242 245 244 252 245 226 223 226 224 214 204 209 203 199 189 175 174 170 170 173 170 169 168 160 154 154 150 152 154 156 154 151 157
260 260 261 259 251 248 243 243 244 246 247 246 241 242 239 236 240 245 245 242 242 226 221 218 222 216 205 202 203 199 198 199 186 176 181 186 178 181 172 162 165 158 159 161 159 155 155 161 165
261 260 261 254 249 243 244 241 245 246 246 247 242 242 235 231 237 240 242 245 236 224 224 218 217 215 207 201 204 202 202 197 183 170 187 188 191 180 174 171 170 172 168 166 163 159 164 168 163
261 260 260 258 254 248 241 243 244 246 246 249 241 237 238 230 232 234 237 243 241 225 224 216 218 211 209 202 199 198 199 188 183 181 208 194 189 181 172 179 176 175 173 172 167 169 169 165 166
260 260 258 258 254 250 246 241 241 244 245 247 244 238 237 234 234 233 232 236 241 230 230 214 214 210 211 201 199 199 196 187 185 203 200 202 192 181 180 182 179 177 176 174 174 171 170 168 163
261 258 258 255 255 254 254 246 241 240 241 241 244 240 235 231 232 230 224 229 239 249 233 223 209 210 207 206 199 201 196 186 180 190 201 204 175 181 185 184 186 183 178 174 175 174 171 172 173
263 261 260 257 256 255 255 250 247 236 241 239 241 240 234 229 229 226 222 230 239 249 222 220 209 210 206 207 201 203 200 190 183 183 176 177 172 168 179 191 189 184 177 177 175 172 174 180 181
262 262 260 260 260 258 256 247 245 245 241 233 240 242 234 230 227 227 219 227 232 230 238 230 218 208 207 204 206 203 202 198 193 189 193 183 180 175 175 181 184 183 177 180 174 179 185 187 181
264 261 261 261 260 260 256 249 241 243 239 235 233 238 237 230 225 226 222 221 231 228 234 238 228 213 210 204 207 206 203 197 204 198 197 194 193 182 178 185 185 183 182 180 180 189 192 188 183
268 261 259 259 260 258 256 247 243 242 241 236 229 233 236 230 223 221 224 221 229 229 227 239 231 216 211 208 206 208 205 203 206 202 204 203 201 183 179 182 188 185 184 185 192 192 192 190 189
269 265 259 256 255 254 252 248 244 242 239 239 231 229 234 232 229 219 219 220 227 228 230 234 228 224 214 211 207 209 207 206 206 203 206 199 198 183 186 188 189 191 188 194 197 192 191 195 194
269 266 261 258 255 252 250 250 248 243 237 237 236 231 231 231 229 226 218 220 221 224 228 229 226 224 223 216 212 211 211 208 207 205 203 192 193 191 192 191 188 193 198 198 195 193 197 201 201
272 266 260 259 257 254 251 247 248 245 239 237 233 232 231 233 229 228 225 218 221 225 226 221 224 223 223 221 214 211 210 208 208 206 203 194 194 194 193 190 191 195 193 193 196 198 206 208 207
275 271 264 261 257 257 255 250 247 244 241 236 234 231 230 233 231 228 226 222 218 223 223 223 229 228 221 223 218 213 211 210 206 205 199 195 197 191 192 196 195 194 194 196 201 204 208 208 212
271 266 264 261 260 257 254 254 247 245 240 237 232 230 228 228 232 228 229 223 219 222 222 223 225 228 224 219 219 219 214 213 213 208 204 198 194 192 195 201 199 197 198 198 203 208 212 217 220
277 270 265 265 265 262 249 258 246 247 242 236 234 230 228 227 228 227 226 227 217 220 221 224 220 229 225 220 218 221 216 211 209 207 206 198 193 195 199 202 201 201 206 210 215 217 218 221 227
283 270 267 262 263 261 270 268 258 251 245 239 235 232 226 224 226 222 223 222 213 216 222 222 225 225 230 225 215 214 220 215 212 210 203 201 198 199 201 203 205 206 210 216 221 224 227 229 233
296 288 276 263 263 274 265 264 284 255 245 238 236 229 226 220 220 217 217 217 211 214 219 221 224 224 230 226 214 211 217 216 211 210 206 203 202 204 205 206 208 212 217 221 224 226 228 230 233
308 282 280 266 263 253 251 263 262 251 227 228 229 224 223 221 221 217 214 216 210 211 216 220 222 223 229 221 216 211 213 216 213 211 210 204 204 206 208 211 212 216 219 224 227 229 231 233 236
299 300 278 274 274 260 278 228 257 265 265 230 225 221 219 217 218 218 212 214 209 209 213 217 220 223 227 228 221 218 213 215 214 214 213 211 208 207 207 213 218 220 224 226 230 234 237 239 241
289 295 279 279 273 250 257 246 249 257 256 231 218 220 216 211 215 216 214 212 208 209 211 215 215 220 225 229 229 226 230 219 218 214 214 214 213 213 213 217 221 225 228 229 231 234 239 242 245
280 282 276 276 259 244 242 260 252 248 242 226 218 215 212 208 212 212 213 211 209 209 211 214 216 219 223 227 230 226 226 225 212 213 212 214 216 218 220 222 225 227 232 235 235 237 238 241 244
267 265 266 262 252 232 239 258 245 280 247 235 227 208 209 205 209 209 209 211 211 208 211 214 216 218 225 226 228 224 222 224 215 211 212 213 215 219 221 225 228 230 232 235 239 241 244 246 248
Height
5818 5820 5821 5823 5825 5826 5827 5828 5826 5823 5825 5826 5827 5826 5828 5828 5827 5828 5826 5824 5823 5823 5823 5824 5825 5824 5823 5821 5819 5820 5820 5820 5820 5823 5825 5827 5828 5828 5830 5833 5837 5840 5843 5844 5847 5849 5852 5855 5857
5812 5814 5816 5816 5819 5822 5825 5823 5822 5818 5822 5823 5824 5823 5825 5826 5825 5824 5824 5823 5822 5821 5821 5822 5822 5822 5822 5819 5819 5820 5819 5819 5819 5822 5824 5827 5828 5829 5830 5831 5836 5839 5842 5844 5847 5849 5852 5855 5857
5806 5808 5809 5811 5815 5818 5819 5816 5817 5815 5818 5819 5821 5820 5822 5823 5822 5822 5821 5822 5821 5820 5820 5821 5821 5821 5821 5818 5818 5819 5819 5818 5819 5822 5825 5827 5828 5830 5831 5834 5838 5839 5842 5844 5846 5849 5852 5855 5859
5799 5801 5802 5805 5811 5812 5813 5811 5810 5810 5812 5814 5816 5818 5819 5819 5819 5819 5819 5819 5821 5819 5819 5819 5819 5819 5819 5817 5817 5818 5819 5818 5819 5821 5825 5827 5829 5830 5832 5834 5837 5839 5840 5843 5846 5850 5853 5856 5859
5792 5794 5794 5799 5804 5805 5807 5804 5803 5805 5807 5809 5812 5814 5815 5816 5816 5815 5817 5817 5818 5817 5817 5817 5817 5816 5817 5817 5816 5818 5819 5819 5819 5821 5825 5828 5829 5831 5832 5835 5836 5839 5841 5842 5845 5850 5853 5857 5860
5785 5787 5788 5793 5796 5798 5801 5799 5797 5799 5800 5802 5806 5810 5812 5813 5812 5813 5814 5814 5816 5815 5815 5815 5814 5815 5814 5816 5815 5818 5818 5820 5820 5821 5824 5827 5829 5833 5835 5836 5837 5840 5842 5844 5846 5851 5854 5857 5860
5779 5780 5782 5786 5790 5791 5794 5790 5789 5790 5792 5795 5799 5805 5807 5806 5808 5809 5810 5811 5811 5812 5812 5812 5812 5813 5812 5815 5815 5816 5817 5818 5820 5822 5824 5826 5829 5833 5835 5837 5839 5841 5843 5844 5847 5851 5855 5858 5860
5772 5771 5774 5781 5784 5785 5783 5782 5780 5782 5786 5785 5794 5799 5799 5800 5802 5804 5806 5807 5808 5808 5808 5808 5810 5811 5811 5812 5814 5815 5816 5818 5820 5822 5824 5826 5829 5832 5835 5838 5839 5841 5843 5845 5848 5852 5855 5858 5861
5763 5763 5766 5773 5774 5776 5774 5774 5772 5774 5778 5781 5787 5791 5793 5795 5797 5800 5802 5802 5804 5804 5804 5805 5806 5808 5808 5811 5813 5814 5815 5817 5819 5822 5824 5825 5828 5831 5835 5836 5838 5841 5844 5847 5849 5852 5855 5858 5861
5756 5756 5759 5760 5763 5765 5764 5766 5765 5768 5770 5775 5781 5784 5786 5789 5793 5795 5797 5797 5799 5799 5801 5801 5803 5805 5806 5808 5811 5813 5815 5816 5818 5822 5823 5824 5827 5829 5832 5835 5837 5841 5844 5846 5849 5852 5855 5858 5861
5748 5749 5747 5751 5753 5753 5756 5758 5759 5760 5765 5771 5772 5774 5778 5782 5786 5789 5791 5793 5793 5796 5796 5798 5800 5801 5803 5805 5808 5810 5813 5815 5817 5818 5820 5823 5824 5827 5831 5834 5837 5841 5844 5847 5850 5852 5855 5858 5860
5738 5738 5739 5742 5742 5741 5745 5748 5751 5752 5762 5760 5761 5765 5770 5776 5780 5783 5786 5789 5791 5792 5794 5794 5796 5798 5800 5802 5804 5807 5810 5812 5813 5803 5816 5820 5822 5825 5829 5833 5837 5840 5843 5847 5850 5852 5855 5858 5859
5728 5729 5729 5731 5731 5732 5734 5739 5742 5747 5749 5749 5751 5756 5763 5769 5773 5777 5780 5782 5787 5789 5790 5790 5792 5794 5796 5799 5800 5804 5807 5810 5812 5812 5812 5814 5818 5822 5827 5831 5836 5839 5843 5845 5848 5852 5855 5857 5859
5717 5717 5720 5719 5720 5721 5722 5729 5731 5745 5737 5742 5741 5745 5753 5760 5764 5768 5772 5776 5781 5783 5784 5786 5787 5790 5792 5795 5796 5799 5803 5807 5809 5811 5811 5813 5816 5818 5823 5829 5833 5837 5841 5844 5848 5852 5854 5857 5859
5705 5706 5707 5709 5710 5709 5709 5717 5726 5731 5723 5732 5732 5737 5744 5750 5756 5761 5766 5770 5774 5777 5779 5782 5783 5785 5788 5790 5792 5795 5800 5803 5807 5809 5811 5813 5815 5818 5822 5826 5831 5835 5839 5843 5846 5849 5852 5855 5858
5691 5693 5694 5698 5695 5695 5698 5708 5719 5706 5713 5719 5723 5726 5733 5740 5747 5753 5758 5763 5766 5770 5775 5777 5780 5781 5783 5785 5788 5791 5795 5800 5803 5806 5808 5811 5813 5814 5819 5824 5828 5833 5837 5840 5844 5847 5851 5854 5856
5674 5677 5678 5680 5680 5681 5682 5695 5699 5698 5703 5707 5714 5717 5722 5730 5735 5742 5749 5755 5759 5763 5767 5771 5775 5776 5778 5780 5782 5786 5790 5794 5799 5802 5805 5807 5810 5812 5818 5822 5826 5830 5834 5838 5842 5845 5849 5852 5854
5657 5658 5661 5665 5665 5661 5665 5673 5679 5686 5691 5695 5704 5708 5712 5720 5726 5731 5737 5745 5750 5754 5759 5763 5768 5771 5773 5775 5777 5780 5784 5788 5793 5798 5798 5802 5806 5810 5814 5819 5824 5828 5832 5835 5839 5843 5846 5849 5851
5639 5639 5643 5646 5644 5642 5649 5655 5664 5671 5679 5685 5693 5699 5702 5708 5715 5723 5728 5734 5741 5745 5751 5755 5762 5766 5769 5771 5774 5778 5781 5785 5789 5794 5797 5798 5802 5808 5812 5816 5820 5825 5828 5832 5836 5839 5843 5846 5848
5622 5621 5626 5621 5626 5627 5632 5640 5647 5656 5668 5672 5679 5687 5693 5698 5706 5713 5719 5724 5732 5738 5744 5749 5754 5757 5763 5766 5769 5772 5775 5779 5783 5788 5792 5795 5799 5804 5810 5814 5818 5821 5825 5829 5833 5836 5839 5842 5845
5609 5608 5605 5606 5607 5612 5618 5620 5631 5643 5648 5659 5664 5676 5681 5688 5696 5703 5708 5715 5722 5728 5736 5741 5747 5751 5756 5760 5762 5765 5768 5771 5774 5781 5786 5791 5796 5800 5806 5811 5815 5818 5821 5825 5829 5832 5835 5838 5841
5597 5594 5593 5592 5592 5598 5600 5599 5615 5622 5632 5639 5651 5660 5671 5677 5684 5693 5698 5704 5712 5719 5726 5732 5736 5743 5748 5751 5756 5761 5765 5769 5775 5778 5782 5788 5792 5797 5801 5806 5810 5814 5817 5822 5825 5828 5832 5835 5837
5583 5582 5581 5580 5580 5581 5590 5582 5599 5603 5612 5628 5638 5645 5655 5663 5671 5679 5687 5695 5703 5708 5715 5722 5728 5735 5740 5745 5750 5754 5758 5761 5765 5770 5776 5781 5786 5790 5795 5800 5806 5810 5814 5817 5821 5824 5827 5829 5833
5572 5571 5570 5569 5571 5568 5581 5574 5579 5590 5602 5612 5620 5627 5636 5644 5653 5662 5671 5678 5687 5696 5703 5712 5719 5727 5733 5739 5743 5748 5752 5756 5759 5764 5768 5774 5779 5784 5790 5795 5801 5805 5808 5812 5814 5817 5821 5824 5827
5563 5560 5560 5565 5563 5566 5566 5566 5573 5575 5582 5588 5588 5597 5611 5623 5631 5642 5650 5660 5673 5685 5694 5702 5710 5718 5725 5731 5737 5741 5745 5750 5755 5759 5764 5768 5774 5779 5785 5791 5795 5798 5801 5804 5806 5810 5814 5817 5820
5557 5555 5553 5551 5556 5556 5557 5558 5556 5552 5550 5553 5572 5580 5594 5607 5617 5627 5639 5650 5661 5675 5684 5693 5702 5709 5717 5724 5729 5733 5737 5743 5748 5753 5758 5761 5767 5774 5778 5783 5787 5789 5792 5795 5799 5802 5806 5809 5812
5552 5549 5547 5543 5544 5546 5548 5550 5541 5543 5545 5547 5556 5566 5577 5592 5604 5615 5625 5636 5650 5661 5672 5683 5693 5701 5709 5716 5721 5725 5729 5736 5742 5747 5752 5757 5759 5764 5769 5774 5779 5782 5785 5788 5792 5796 5799 5802 5804
5542 5541 5541 5537 5537 5539 5543 5534 5535 5535 5537 5540 5544 5554 5566 5579 5591 5603 5615 5626 5639 5651 5663 5671 5681 5690 5699 5706 5713 5718 5723 5728 5735 5740 5744 5750 5754 5757 5762 5767 5770 5774 5778 5781 5784 5788 5791 5795 5798
5534 5531 5531 5531 5531 5530 5531 5528 5526 5526 5528 5531 5534 5542 5554 5566 5577 5590 5603 5615 5628 5639 5649 5659 5671 5679 5687 5696 5703 5707 5713 5719 5724 5730 5735 5741 5746 5750 5755 5758 5762 5766 5771 5774 5777 5780 5783 5786 5789
5523 5523 5523 5524 5527 5524 5525 5523 5520 5518 5519 5523 5525 5531 5542 5553 5566 5579 5591 5604 5618 5629 5640 5649 5652 5668 5678 5687 5692 5696 5699 5706 5715 5720 5725 5731 5736 5741 5745 5748 5752 5756 5760 5765 5769 5772 5775 5777 5779